This is the latest recevied weather packets stored in our database for station/object K0SNA. If no packets are shown the sender has not sent any weather packets the latest 10 day(s).
| Time | Temp. | Humidity | Pressure | Rain* | Wind** | Luminosity | Snow |
|---|---|---|---|---|---|---|---|
| 1777530684 | 4.44° C | 69% | 1017.9 hPa | 0 mm | - | 0 W/m² | - |
| 1777530381 | 4.44° C | 69% | 1017.9 hPa | 0 mm | - | 0 W/m² | - |
| 1777530077 | 4.44° C | 67% | 1018 hPa | 0 mm | - | 0 W/m² | - |
| 1777529775 | 4.44° C | 66% | 1017.9 hPa | 0 mm | - | 0 W/m² | - |
| 1777529471 | 4.44° C | 65% | 1018.1 hPa | 0 mm | - | 0 W/m² | - |
| 1777529169 | 4.44° C | 65% | 1017.9 hPa | 0 mm | - | 0 W/m² | - |
| 1777528864 | 3.89° C | 69% | 1018 hPa | 0 mm | - | 0 W/m² | - |
| 1777528561 | 3.89° C | 71% | 1017.9 hPa | 0 mm | - | 0 W/m² | - |
| 1777528258 | 3.89° C | 70% | 1017.7 hPa | 0 mm | - | 0 W/m² | - |
| 1777527956 | 3.89° C | 71% | 1017.7 hPa | 0 mm | - | 0 W/m² | - |
| 1777527651 | 3.89° C | 71% | 1017.8 hPa | 0 mm | - | 0 W/m² | - |
| 1777527347 | 4.44° C | 69% | 1017.7 hPa | 0 mm | - | 0 W/m² | - |
| 1777527043 | 4.44° C | 68% | 1017.8 hPa | 0 mm | - | 0 W/m² | - |
| 1777526739 | 4.44° C | 67% | 1017.8 hPa | 0 mm | - | 0 W/m² | - |
| 1777526434 | 5° C | 64% | 1017.7 hPa | 0 mm | - | 0 W/m² | - |
| 1777526128 | 5° C | 63% | 1017.8 hPa | 0 mm | - | 0 W/m² | - |
| 1777525826 | 5° C | 64% | 1017.7 hPa | 0 mm | - | 0 W/m² | - |
| 1777525523 | 5.56° C | 60% | 1017.4 hPa | 0 mm | - | 0 W/m² | - |
| 1777525220 | 6.11° C | 58% | 1017.5 hPa | 0 mm | - | 0 W/m² | - |
| 1777524915 | 6.11° C | 58% | 1017.8 hPa | 0 mm | - | 0 W/m² | - |
| 1777524613 | 6.11° C | 57% | 1017.4 hPa | 0 mm | - | 0 W/m² | - |
| 1777524311 | 6.67° C | 58% | 1017.5 hPa | 0 mm | - | 0 W/m² | - |
| 1777524007 | 6.67° C | 57% | 1017.4 hPa | 0 mm | - | 0 W/m² | - |
| 1777523703 | 6.67° C | 56% | 1017.5 hPa | 0 mm | - | 0 W/m² | - |
| 1777523399 | 6.67° C | 56% | 1017.5 hPa | 0 mm | - | 0 W/m² | - |
* Rain latest hour (hover to see other rain measurements)
** Current wind speed in m/s (hover to see current wind gust speed)